SCP
0 0 0 0 0 0 0 0 0 0 0 0 0 0 0 0 0 0 0 0 0 0 0 0 0 0 0 0 0 0 0 0 0 0 0 0 0 0
0 0 0 0 0 0 0 0 0 0 0 0 0 0 0 0 0 0 0 0 0 0 0 0 0 0 0 0 0 0 0 0 0 0 0 0 0 0
0 0 0 0 0 0 0 0 0 0 0 0 0 0 0 0 0 0 0 0 0 0 0 0 0 0 0 0 0 0 0 0 0 0 0 0 0 0
0 0 0 0 0 0 0 0 0 0 0 0 0 0 0 0 0 0 0 0 0 0 0 0 0 0 0 0 0 0 0 0 0 0 0 0 0 0
0 0 0 0 0 0 0 0 0 0 0 0 0 0 0 0 0 0 0 0 0 0 0 0 0 0 0 0 0 0 0 0 0 0 0 0 0 0
0 0 0 0 0 0 0 0 0 0 0 0 0 0 0 0 0 0 0 0 0 0 0 0 0 0 0 0 0 0 0 0 0 0 0 0 0 0
0 0 0 0 0 0 0 0 0 0 0 0 0 0 0 0 0 0 0 0 0 0 0 0 0 0 0 0 0 0 0 0 0 0 0 0 0 0
0 0 0 0 0 0 0 0 0 0 0 0 0 0 0 0 0 0 0 0 0 0 0 0 0 0 0 0 0 0 0 0 0 0 0 0 0 0
0 0 0 0 0 0 0 0 0 0 0 0 0 0 0 0 0 0 0 0 0 0 0 0 0 0 0 0 0 0 0 0 0 0 0 0 0 -0
0 0 0 0 0 0 0 0 0 0 0 0 0 0 0 0 0 0 0 0 0 0 0 0 0 0 0 0 0 0 0 0 0 0 0 0 0 0
0 0 0 0 0 0 0 0 0 0 0 0 0 0 0 0 0 0 0 0 0 0 0 0 0 0 0 0 0 0 0 0 0 0 0 0 -0 -0
0 0 0 0 0 0 0 0 0 0 0 0 0 0 0 0 0 0 0 0 0 0 0 0 0 0 0 0 0 0 0 0 0 0 0 0 0 0
0 0 0 0 0 0 0 0 0 0 0 0 0 0 0 0 0 0 0 0 0 0 0 0 0 0 0 0 0 0 0 0 0 0 0 0 0 0
0 0 0 0 0 0 0 0 0 0 0 0 0 0 0 0 0 0 0 0 0 0 0 0 0 0 0 0 0 0 0 0 0 0 0 0 0 0
0 0 0 0 0 0 0 0 0 0 0 0 0 0 0 0 0 0 0 0 0 0 0 0 0 0 0 0 0 0 0 0 0 0 0 0 0 0
0 0 0 0 0 0 0 0 0 0 0 0 0 0 0 0 0 0 0 0 0 0 0 0 0 0 0 0 0 0 0 0 0 0 0 0 0 0
0 0 0 0 0 0 0 0 0 0 0 0 0 0 0 0 0 0 0 0 0 0 0 0 0 0 0 0 0 0 0 0 0 0 0 0 0 0
0 0 0 0 0 0 0 0 0 0 0 0 0 0 0 0 0 0 0 0 0 0 0 0 0 0 0 0 0 0 0 0 0 0 0 0 0 0
0 0 0 0 0 0 0 0 0 0 0 0 0 0 0 0 0 0 0 0 0 0 0 0 0 0 0 0 0 0 0 0 0 0 0 0 0 0
0 0 0 0 0 0 0 0 0 -0 0 0 0 0 0 0 0 0 0 0 0 0 0 0 0 0 0 0 0 0 0 0 0 0 0 0 0 0
0 0 0 0 0 0 0 0 0 0 0 0 0 0 0 0 0 0 0 0 0 0 0 0 0 0 0 0 0 0 0 0 0 0 0 0 0 0
0 0 0 0 0 0 0 0 0 0 0 0 0 0 0 0 0 0 0 0 0 0 0 0 0 0 0 0 0 0 0 0 0 0 0 0 0 0
0 0 0 0 0 0 0 0 0 0 0 0 0 0 0 0 0 0 0 0 0 0 0 0 0 0 0 0 0 0 0 0 0 0 0 0 0 0
Wind_Speed_500mb
75 74 68 60 60 60 53 47 40 37 32 17 19 14 21 24 20 27 38 29 27 27 31 39 53 86 78 62 76 63 50 54 46 40 36 47 43 41
70 78 74 60 65 58 57 48 45 40 32 13 21 15 22 20 20 18 22 24 22 26 32 36 50 84 88 54 63 60 56 55 48 45 39 47 45 42
93 59 77 66 64 62 52 47 47 39 34 26 13 24 25 19 20 16 19 24 24 24 27 34 54 81 80 56 79 61 64 54 50 48 44 47 47 43
77 80 75 66 63 63 57 51 48 44 38 36 14 30 18 20 22 17 16 22 24 24 24 33 60 79 68 62 67 70 65 55 53 52 48 46 47 41
69 73 64 70 65 64 57 53 46 42 40 38 23 25 27 22 19 17 17 18 22 28 28 36 68 80 60 60 77 63 55 59 57 53 49 45 46 45
58 55 64 78 74 72 64 53 49 44 37 43 29 21 26 26 20 17 22 15 14 22 33 43 71 66 56 63 73 60 64 56 58 54 49 47 46 42
57 65 72 76 73 69 66 54 46 43 41 44 27 20 28 25 25 16 21 19 19 13 34 65 68 56 47 61 69 63 55 61 58 56 52 49 47 44
48 64 62 56 75 68 61 57 47 45 47 47 26 29 25 25 24 20 21 17 16 27 49 51 48 46 42 72 73 57 58 62 59 55 51 57 47 40
39 50 63 74 60 59 57 50 44 41 49 43 30 26 28 24 28 28 24 18 20 48 50 61 60 60 82 63 71 68 68 68 66 60 56 54 48 41
40 39 50 64 74 64 53 58 45 45 53 45 34 30 27 27 25 31 25 19 29 54 48 59 67 78 75 69 67 64 64 64 61 58 57 54 47 35
38 46 49 53 71 75 65 54 54 51 54 45 33 28 27 24 29 35 30 37 49 56 72 80 79 82 84 75 73 68 68 59 52 59 59 51 41 36
39 32 51 57 54 81 75 53 58 51 57 44 31 27 28 28 35 26 27 35 57 49 71 81 92 89 79 78 82 72 66 53 55 57 52 47 40 40
40 40 39 57 58 69 65 60 52 47 50 40 28 27 31 32 18 18 28 35 55 53 67 75 86 88 55 77 80 79 58 66 61 59 51 44 37 25
35 42 43 53 60 63 52 50 49 48 44 35 37 20 35 26 18 23 33 34 56 53 59 70 79 80 76 86 73 65 71 65 62 54 52 44 34 32
36 51 50 57 63 57 49 51 48 48 36 46 10 17 29 26 25 28 32 31 56 52 57 64 65 74 92 92 88 80 67 61 62 57 47 41 39 35
55 56 55 59 55 50 44 43 39 46 40 20 13 18 17 27 23 32 34 34 53 46 53 57 68 82 78 66 81 67 64 59 61 53 43 46 38 32
54 52 57 54 46 44 38 37 42 40 27 20 16 13 17 22 38 32 36 36 48 51 62 67 68 62 76 83 68 63 59 53 58 47 44 41 41 42
48 48 46 44 37 37 44 40 40 36 30 27 21 23 23 34 32 34 36 39 45 62 55 65 66 61 81 68 58 65 63 54 55 46 42 44 46 43
47 43 38 36 33 47 45 36 41 36 32 24 23 25 34 35 28 37 39 40 47 61 52 55 61 72 75 72 61 66 63 56 56 50 46 42 34 33
37 34 32 29 40 46 43 40 29 31 30 22 22 26 37 31 27 40 32 40 41 56 58 58 60 75 68 73 61 70 59 55 51 46 47 43 37 32
33 28 28 31 34 37 32 24 27 26 24 29 27 28 31 31 28 37 38 52 42 53 57 65 74 68 57 51 54 62 51 52 50 48 44 43 38 35
33 37 37 33 31 30 33 29 20 26 31 26 29 26 25 30 34 41 54 47 44 47 71 66 63 58 56 55 53 54 58 53 49 50 43 37 31 27
36 30 31 30 25 21 19 21 22 26 33 30 23 21 20 29 39 43 44 57 50 62 61 58 55 53 49 54 48 51 55 55 55 51 42 38 35 31
Wind_Direction_500mb
229 228 236 235 227 229 231 229 227 232 236 229 225 229 219 197 187 206 212 216 214 223 226 220 205 193 192 201 194 198 187 185 180 176 172 172 165 163
238 220 226 230 224 225 228 224 222 225 227 201 209 209 191 200 196 193 209 220 226 232 224 215 204 194 192 194 178 197 192 188 183 177 173 171 170 166
228 232 213 222 219 217 216 210 215 218 223 212 216 204 201 199 203 206 232 230 236 222 215 208 199 191 191 193 195 198 185 179 179 171 171 173 175 170
217 220 210 212 214 212 211 211 211 218 221 220 203 192 205 201 208 227 256 229 212 213 218 208 192 185 191 201 200 196 179 177 174 171 169 174 178 175
216 228 219 204 206 202 204 207 208 213 221 216 184 179 187 195 199 229 204 217 227 210 212 201 186 182 188 194 191 191 185 173 169 173 176 178 177 178
196 212 214 199 199 201 200 201 206 209 218 212 188 176 186 201 209 241 202 208 225 216 204 182 174 183 188 185 194 194 179 168 173 176 181 184 184 185
202 185 191 179 190 203 203 198 199 207 211 205 188 191 195 205 211 210 207 210 217 230 185 164 172 177 191 182 189 185 186 183 177 182 186 185 177 169
195 203 205 178 195 200 199 201 208 210 205 198 190 188 185 193 209 211 205 222 240 183 169 166 169 180 179 175 180 178 172 172 179 187 182 174 170 171
189 196 199 206 189 188 200 195 196 203 204 194 195 192 190 199 217 205 203 211 204 172 176 173 178 171 171 167 167 174 177 178 180 178 176 169 171 178
175 188 184 193 200 194 185 189 195 196 195 196 199 192 206 212 226 205 207 218 189 173 180 174 174 174 169 170 172 172 175 178 180 178 175 172 169 174
166 178 174 182 187 192 194 188 183 189 187 194 197 195 209 218 191 201 225 195 181 184 179 164 168 169 169 170 175 180 179 177 179 178 174 172 173 180
158 158 177 178 180 181 191 189 184 186 182 193 203 205 199 190 194 205 211 196 182 177 167 176 165 166 164 178 177 170 173 176 177 173 174 173 174 176
162 163 160 174 173 177 187 192 182 180 185 200 206 207 186 187 202 211 202 203 195 193 174 177 169 167 174 158 166 168 167 177 178 169 168 170 171 184
157 154 153 165 163 169 174 176 184 189 192 199 191 184 188 195 223 202 190 198 195 199 182 184 182 178 175 157 158 175 172 167 169 170 169 170 170 169
146 143 140 150 154 160 172 180 189 190 197 189 223 157 179 208 226 183 183 198 190 191 180 181 188 180 172 167 165 168 160 173 172 172 170 171 176 183
136 140 130 144 154 163 170 179 183 189 189 200 156 170 203 194 204 186 190 176 187 184 189 194 192 182 174 177 174 164 177 166 175 174 172 172 182 191
136 137 140 147 153 164 168 169 175 178 183 187 201 224 201 192 174 183 178 182 176 181 175 185 179 184 180 169 166 174 175 182 175 176 176 173 185 187
147 146 147 150 153 163 161 157 169 174 187 201 219 206 201 180 177 180 180 186 181 176 174 165 180 185 171 167 179 184 190 183 181 181 184 190 192 197
138 147 147 156 160 161 159 159 171 193 200 208 205 188 175 177 185 179 182 188 189 173 174 187 184 183 180 172 177 185 190 191 184 187 196 204 211 216
131 140 144 154 158 164 169 174 196 196 193 200 193 175 179 183 187 185 186 183 189 186 187 191 192 182 187 186 185 189 188 194 194 200 203 208 214 222
129 132 126 126 143 162 180 186 179 191 192 179 181 173 183 197 182 187 191 171 162 180 189 180 182 187 191 194 197 192 192 198 206 210 213 215 218 219
125 126 139 150 152 157 164 172 182 174 180 176 174 189 197 194 193 181 181 183 185 182 174 179 181 191 195 199 202 206 203 202 205 212 214 216 222 222
123 125 132 142 153 162 157 149 154 165 173 181 196 194 189 179 189 191 194 191 175 177 177 182 185 189 198 202 209 206 205 205 208 209 209 217 224 238
Wind_Speed_850mb
75 74 68 60 60 60 53 47 40 37 32 17 19 14 21 24 20 27 38 29 27 27 31 39 53 86 78 62 76 63 50 54 46 40 36 47 43 41
70 78 74 60 65 58 57 48 45 40 32 13 21 15 22 20 20 18 22 24 22 26 32 36 50 84 88 54 63 60 56 55 48 45 39 47 45 42
93 59 77 66 64 62 52 47 47 39 34 26 13 24 25 19 20 16 19 24 24 24 27 34 54 81 80 56 79 61 64 54 50 48 44 47 47 43
77 80 75 66 63 63 57 51 48 44 38 36 14 30 18 20 22 17 16 22 24 24 24 33 60 79 68 62 67 70 65 55 53 52 48 46 47 41
69 73 64 70 65 64 57 53 46 42 40 38 23 25 27 22 19 17 17 18 22 28 28 36 68 80 60 60 77 63 55 59 57 53 49 45 46 45
58 55 64 78 74 72 64 53 49 44 37 43 29 21 26 26 20 17 22 15 14 22 33 43 71 66 56 63 73 60 64 56 58 54 49 47 46 42
57 65 72 76 73 69 66 54 46 43 41 44 27 20 28 25 25 16 21 19 19 13 34 65 68 56 47 61 69 63 55 61 58 56 52 49 47 44
48 64 62 56 75 68 61 57 47 45 47 47 26 29 25 25 24 20 21 17 16 27 49 51 48 46 42 72 73 57 58 62 59 55 51 57 47 40
39 50 63 74 60 59 57 50 44 41 49 43 30 26 28 24 28 28 24 18 20 48 50 61 60 60 82 63 71 68 68 68 66 60 56 54 48 41
40 39 50 64 74 64 53 58 45 45 53 45 34 30 27 27 25 31 25 19 29 54 48 59 67 78 75 69 67 64 64 64 61 58 57 54 47 35
38 46 49 53 71 75 65 54 54 51 54 45 33 28 27 24 29 35 30 37 49 56 72 80 79 82 84 75 73 68 68 59 52 59 59 51 41 36
39 32 51 57 54 81 75 53 58 51 57 44 31 27 28 28 35 26 27 35 57 49 71 81 92 89 79 78 82 72 66 53 55 57 52 47 40 40
40 40 39 57 58 69 65 60 52 47 50 40 28 27 31 32 18 18 28 35 55 53 67 75 86 88 55 77 80 79 58 66 61 59 51 44 37 25
35 42 43 53 60 63 52 50 49 48 44 35 37 20 35 26 18 23 33 34 56 53 59 70 79 80 76 86 73 65 71 65 62 54 52 44 34 32
36 51 50 57 63 57 49 51 48 48 36 46 10 17 29 26 25 28 32 31 56 52 57 64 65 74 92 92 88 80 67 61 62 57 47 41 39 35
55 56 55 59 55 50 44 43 39 46 40 20 13 18 17 27 23 32 34 34 53 46 53 57 68 82 78 66 81 67 64 59 61 53 43 46 38 32
54 52 57 54 46 44 38 37 42 40 27 20 16 13 17 22 38 32 36 36 48 51 62 67 68 62 76 83 68 63 59 53 58 47 44 41 41 42
48 48 46 44 37 37 44 40 40 36 30 27 21 23 23 34 32 34 36 39 45 62 55 65 66 61 81 68 58 65 63 54 55 46 42 44 46 43
47 43 38 36 33 47 45 36 41 36 32 24 23 25 34 35 28 37 39 40 47 61 52 55 61 72 75 72 61 66 63 56 56 50 46 42 34 33
37 34 32 29 40 46 43 40 29 31 30 22 22 26 37 31 27 40 32 40 41 56 58 58 60 75 68 73 61 70 59 55 51 46 47 43 37 32
33 28 28 31 34 37 32 24 27 26 24 29 27 28 31 31 28 37 38 52 42 53 57 65 74 68 57 51 54 62 51 52 50 48 44 43 38 35
33 37 37 33 31 30 33 29 20 26 31 26 29 26 25 30 34 41 54 47 44 47 71 66 63 58 56 55 53 54 58 53 49 50 43 37 31 27
36 30 31 30 25 21 19 21 22 26 33 30 23 21 20 29 39 43 44 57 50 62 61 58 55 53 49 54 48 51 55 55 55 51 42 38 35 31
Wind_Direction_850mb
229 228 236 235 227 229 231 229 227 232 236 229 225 229 219 197 187 206 212 216 214 223 226 220 205 193 192 201 194 198 187 185 180 176 172 172 165 163
238 220 226 230 224 225 228 224 222 225 227 201 209 209 191 200 196 193 209 220 226 232 224 215 204 194 192 194 178 197 192 188 183 177 173 171 170 166
228 232 213 222 219 217 216 210 215 218 223 212 216 204 201 199 203 206 232 230 236 222 215 208 199 191 191 193 195 198 185 179 179 171 171 173 175 170
217 220 210 212 214 212 211 211 211 218 221 220 203 192 205 201 208 227 256 229 212 213 218 208 192 185 191 201 200 196 179 177 174 171 169 174 178 175
216 228 219 204 206 202 204 207 208 213 221 216 184 179 187 195 199 229 204 217 227 210 212 201 186 182 188 194 191 191 185 173 169 173 176 178 177 178
196 212 214 199 199 201 200 201 206 209 218 212 188 176 186 201 209 241 202 208 225 216 204 182 174 183 188 185 194 194 179 168 173 176 181 184 184 185
202 185 191 179 190 203 203 198 199 207 211 205 188 191 195 205 211 210 207 210 217 230 185 164 172 177 191 182 189 185 186 183 177 182 186 185 177 169
195 203 205 178 195 200 199 201 208 210 205 198 190 188 185 193 209 211 205 222 240 183 169 166 169 180 179 175 180 178 172 172 179 187 182 174 170 171
189 196 199 206 189 188 200 195 196 203 204 194 195 192 190 199 217 205 203 211 204 172 176 173 178 171 171 167 167 174 177 178 180 178 176 169 171 178
175 188 184 193 200 194 185 189 195 196 195 196 199 192 206 212 226 205 207 218 189 173 180 174 174 174 169 170 172 172 175 178 180 178 175 172 169 174
166 178 174 182 187 192 194 188 183 189 187 194 197 195 209 218 191 201 225 195 181 184 179 164 168 169 169 170 175 180 179 177 179 178 174 172 173 180
158 158 177 178 180 181 191 189 184 186 182 193 203 205 199 190 194 205 211 196 182 177 167 176 165 166 164 178 177 170 173 176 177 173 174 173 174 176
162 163 160 174 173 177 187 192 182 180 185 200 206 207 186 187 202 211 202 203 195 193 174 177 169 167 174 158 166 168 167 177 178 169 168 170 171 184
157 154 153 165 163 169 174 176 184 189 192 199 191 184 188 195 223 202 190 198 195 199 182 184 182 178 175 157 158 175 172 167 169 170 169 170 170 169
146 143 140 150 154 160 172 180 189 190 197 189 223 157 179 208 226 183 183 198 190 191 180 181 188 180 172 167 165 168 160 173 172 172 170 171 176 183
136 140 130 144 154 163 170 179 183 189 189 200 156 170 203 194 204 186 190 176 187 184 189 194 192 182 174 177 174 164 177 166 175 174 172 172 182 191
136 137 140 147 153 164 168 169 175 178 183 187 201 224 201 192 174 183 178 182 176 181 175 185 179 184 180 169 166 174 175 182 175 176 176 173 185 187
147 146 147 150 153 163 161 157 169 174 187 201 219 206 201 180 177 180 180 186 181 176 174 165 180 185 171 167 179 184 190 183 181 181 184 190 192 197
138 147 147 156 160 161 159 159 171 193 200 208 205 188 175 177 185 179 182 188 189 173 174 187 184 183 180 172 177 185 190 191 184 187 196 204 211 216
131 140 144 154 158 164 169 174 196 196 193 200 193 175 179 183 187 185 186 183 189 186 187 191 192 182 187 186 185 189 188 194 194 200 203 208 214 222
129 132 126 126 143 162 180 186 179 191 192 179 181 173 183 197 182 187 191 171 162 180 189 180 182 187 191 194 197 192 192 198 206 210 213 215 218 219
125 126 139 150 152 157 164 172 182 174 180 176 174 189 197 194 193 181 181 183 185 182 174 179 181 191 195 199 202 206 203 202 205 212 214 216 222 222
123 125 132 142 153 162 157 149 154 165 173 181 196 194 189 179 189 191 194 191 175 177 177 182 185 189 198 202 209 206 205 205 208 209 209 217 224 238